This is the latest recevied weather packets stored in our database for station/object CQ0XBF-11. If no packets are shown the sender has not sent any weather packets the latest 10 day(s).
| Time | Temp. | Humidity | Pressure | Rain* | Wind** | Luminosity | Snow |
|---|---|---|---|---|---|---|---|
| 1777363019 | 20.56° C | 58% | - | 0 mm | - | - | - |
| 1777362980 | 20.56° C | 58% | - | 0 mm | - | - | - |
| 1777362858 | 20.56° C | 57% | - | 0 mm | - | - | - |
| 1777362775 | 20.56° C | 58% | - | 0 mm | - | - | - |
| 1777362737 | 20.56° C | 58% | - | 0 mm | - | - | - |
| 1777362615 | 20° C | 62% | - | 0 mm | - | - | - |
| 1777362494 | 19.44° C | 64% | - | 0 mm | - | - | - |
| 1777362418 | 19.44° C | 67% | - | 0 mm | - | - | - |
| 1777362372 | 19.44° C | 67% | - | 0 mm | - | - | - |
| 1777362251 | 18.33° C | 70% | - | 0 mm | - | - | - |
| 1777362129 | 17.78° C | 73% | - | 0 mm | - | - | - |
| 1777362007 | 17.78° C | 73% | - | 0 mm | - | - | - |
| 1777361885 | 17.22° C | 73% | - | 0 mm | - | - | - |
| 1777361763 | 17.22° C | 73% | - | 0 mm | - | - | - |
| 1777361642 | 17.22° C | 73% | - | 0 mm | - | - | - |
| 1777361520 | 17.22° C | 73% | - | 0 mm | - | - | - |
| 1777361399 | 16.67° C | 73% | - | 0 mm | - | - | - |
| 1777361277 | 17.22° C | 74% | - | 0 mm | - | - | - |
| 1777361155 | 17.22° C | 74% | - | 0 mm | - | - | - |
| 1777361034 | 17.22° C | 74% | - | 0 mm | - | - | - |
| 1777360912 | 16.67° C | 74% | - | 0 mm | - | - | - |
| 1777360791 | 16.67° C | 74% | - | 0 mm | - | - | - |
| 1777360669 | 17.22° C | 74% | - | 0 mm | - | - | - |
| 1777360548 | 16.67° C | 74% | - | 0 mm | - | - | - |
| 1777360426 | 16.67° C | 74% | - | 0 mm | - | - | - |
* Rain since midnight (hover to see other rain measurements)
** Current wind speed in m/s (hover to see current wind gust speed)